Flag for Germany Weather past 2 weeks in Memmingen, Bavaria, Germany

Now
48 °F

Light rain. Light fog.


Feels Like: 45 °F
Forecast: 36 / 45 °F
Wind: 6 mph from West

Location: Kempten

Current Time: Dec 19, 2014 at 10:10:07 PM

Latest Report: Dec 19, 2014 at 9:00 PM


Visibility: 5 mi

Pressure: 30.15 "Hg

Humidity: 79%

Dew point: 42 °F

Location of MemmingenLocation

Historic Weather in Memmingen — Graph

°F

Memmingen temperature yesterday

Maximum temperature yesterday: 50 °F (at 11:00 PM)
Minimum temperature yesterday: 41 °F (at 12:00 AM)
Average temperature yesterday: 45 °F

Past Weeks' High & Low Weather Summary

 TemperatureHumidityPressure
High53 °F (Dec 19, 2:00 PM)100% (Dec 5, 1:00 AM)30.50 "Hg (Dec 5, 1:00 AM)
Low24 °F (Dec 10, 7:00 AM)47% (Dec 13, 2:00 PM)29.84 "Hg (Dec 12, 9:00 PM)
Average39 °F83%30.11 "Hg
* Reported Dec 4 9:00 PM — Dec 19 9:00 PM, Memmingen, Weather by CustomWeather, © 2014

Note: Actual official high and low records may vary slightly from our data, if they occured in-between our weather recording intervals... More about our weather records

Advertising

Memmingen weather history for previous 24 hours

 ConditionsComfort  
Time TempWeatherWind HumidityBarometerVisibility
9:00 PM
Dec 19
48 °FLight rain. Light fog.6 mph79%30.15 "Hg5 mi
8:00 PM50 °FOvercast.3 mph65%30.12 "Hg40 mi
7:00 PM50 °FOvercast.3 mph61%30.11 "Hg43 mi
6:00 PM49 °FOvercast.3 mph66%30.11 "Hg43 mi
5:00 PM50 °FPassing clouds.5 mph65%30.10 "Hg43 mi
3:00 PM53 °FOvercast.8 mph57%30.09 "Hg40 mi
2:00 PM53 °FOvercast.7 mph60%30.10 "Hg31 mi
1:00 PM52 °FOvercast.6 mph63%30.12 "Hg43 mi
12:00 PM52 °FOvercast.5 mph64%30.14 "Hg40 mi
11:00 AM50 °FOvercast.3 mph74%30.17 "Hg43 mi
9:00 AM47 °FPassing clouds.3 mph82%30.19 "Hg43 mi
8:00 AM48 °FClear.5 mph81%30.18 "Hg43 mi
7:00 AM49 °FPassing clouds.6 mph77%30.16 "Hg43 mi
6:00 AM48 °FPassing clouds.5 mph81%30.17 "Hg37 mi
5:00 AM48 °FOvercast.5 mph80%30.17 "Hg43 mi
3:00 AM49 °FClear.8 mph78%30.18 "Hg43 mi
2:00 AM50 °FClear.8 mph78%30.17 "Hg43 mi
1:00 AM50 °FOvercast.5 mph82%30.18 "Hg43 mi
12:00 AM50 °FOvercast.5 mph83%30.17 "Hg43 mi
11:00 PM
Dec 18
50 °FOvercast.3 mph86%30.17 "Hg43 mi
Weather by CustomWeather, © 2014

See weather overviewHow to use our weather pages